Location: Goettingen
(51.5300°N, 9.9433°E)
Time: 18:51:26
(UTC+02:00)

ISS - Pass Details

Date: 11 May 2026
Orbit: 414 x 424 km, 51.6° (Epoch: 13 May)

Event Time Altitude Azimuth Distance (km) Brightness Sun altitude
Rises 23:18:10 0° 261° (W) 2,350 0.3 -15.8°
Reaches altitude 10° 23:20:16 10° 261° (W) 1,489 -0.7 -15.9°
Maximum altitude 23:23:36 88° 173° (S) 421 -3.9 -16.2°
Enters shadow 23:26:25 14° 84° (E) 1,271 -1.5 -16.4°
